Flag for U.S.A. Weather past 2 weeks in Mesquite, Texas, U.S.A.

45 °F

Low clouds.

Feels Like: 41 °F
Forecast: 44 / 51 °F
Wind: 7 mph from Northwest

Location: Mesquite Metro Airport

Current Time: Nov 30, 2015 at 10:16:29 AM

Latest Report: Nov 30, 2015 at 8:50 AM

Visibility: 2 mi

Pressure: 30.06 "Hg

Humidity: 100%

Dew point: 45 °F

Location of MesquiteLocation

Historic Weather in Mesquite — Graph


Mesquite temperature yesterday

Maximum temperature yesterday: 45 °F (at 2:50 PM)
Minimum temperature yesterday: 40 °F (at 3:55 AM)
Average temperature yesterday: 42 °F

Past Weeks' High & Low Weather Summary

High73 °F (Nov 25, 2:50 PM)100% (Nov 16, 3:50 PM)30.37 "Hg (Nov 16, 3:50 PM)
Low30 °F (Nov 22, 6:50 AM)30% (Nov 22, 3:50 PM)29.48 "Hg (Nov 17, 4:15 AM)
Average53 °F80%30.07 "Hg
* Reported Nov 15 8:50 AM — Nov 30 8:50 AM, Mesquite, Weather by CustomWeather, © 2015

Note: Actual official high and low records may vary slightly from our data, if they occured in-between our weather recording intervals... More about our weather records


Mesquite weather history for previous 24 hours

Time TempWeatherWind HumidityBarometerVisibility
8:50 AM
Mon, Nov 30
45 °FLow clouds.7 mph100%30.06 "Hg2 mi
7:50 AM45 °FLow clouds.6 mph100%30.04 "Hg7 mi
5:15 AM44 °FLow clouds.3 mph98%30.03 "Hg10 mi
4:55 AM44 °FLow clouds.No wind99%30.02 "Hg10 mi
4:35 AM44 °FLow clouds.No wind98%30.02 "Hg10 mi
4:15 AM44 °FLow clouds.No wind99%30.02 "Hg10 mi
3:55 AM44 °FLow clouds.No wind99%30.02 "Hg10 mi
3:35 AM44 °FLow clouds.No wind99%30.02 "Hg10 mi
3:15 AM44 °FMostly cloudy.5 mph99%30.03 "Hg10 mi
2:55 AM44 °FOvercast.No wind99%30.04 "Hg7 mi
2:35 AM44 °FOvercast.No wind99%30.04 "Hg4 mi
12:55 AM44 °FMostly cloudy.3 mph99%30.06 "Hg2 mi
12:35 AM44 °FMostly cloudy.No wind99%30.06 "Hg2 mi
11:55 PM
Sun, Nov 29
44 °FOvercast.No wind97%30.07 "Hg3 mi
11:15 PM44 °FMostly cloudy.No wind97%30.09 "Hg2 mi
10:55 PM44 °FMostly cloudy.No wind97%30.09 "Hg2 mi
10:15 PM44 °FMostly cloudy.No wind96%30.09 "Hg7 mi
9:35 PM44 °FMostly cloudy.3 mph97%30.10 "Hg10 mi
9:15 PM44 °FMostly cloudy.6 mph97%30.12 "Hg10 mi
8:55 PM44 °FMostly cloudy.5 mph97%30.12 "Hg10 mi
8:15 PM43 °FLow clouds.6 mph98%30.12 "Hg10 mi
6:50 PM43 °FLow clouds.7 mph100%30.13 "Hg7 mi
5:50 PM45 °FLow clouds.8 mph93%30.14 "Hg10 mi
4:50 PM45 °FLight rain. Low clouds.3 mph93%30.11 "Hg10 mi
3:50 PM45 °FLight rain. Low clouds.6 mph93%30.10 "Hg10 mi
2:50 PM45 °FLight rain. Low clouds.6 mph93%30.11 "Hg7 mi
1:50 PM43 °FFog.No wind100%30.13 "Hg4 mi
12:50 PM43 °FFog.5 mph100%30.15 "Hg4 mi
11:50 AM43 °FFog.6 mph93%30.19 "Hg3 mi
10:50 AM41 °FFog.7 mph100%30.24 "Hg3 mi
Weather by CustomWeather, © 2015

See weather overviewHow to use our weather pages